Regional Weather Roundup
Issued by NWS Huntsville, AL

Home | Current Version | Previous Version | Text Only | Print | Product List | Glossary On
Versions: 1 2 3 4 5 6 7 8 9 10 11 12 13 14 15 16 17 18 19 20 21 22 23 24 25 26 27
000
ASUS44 KHUN 190010
RWRHUN

WEATHER ROUNDUP FOR THE TENNESSEE VALLEY
NATIONAL WEATHER SERVICE HUNTSVILLE AL
700 PM CDT FRI AUG 18 2017

ALZ001>004-190100-
NORTHWEST ALABAMA

CITY           SKY/WX    TMP DP  RH WIND       PRES   REMARKS
COURTLAND HCN    N/A     86 N/A N/A NW6         N/A
RUSSELLVILLE     N/A     81 N/A N/A MISG        N/A
SHOALS AIRPORT CLEAR     84  68  58 NW3       29.99R
6HR MIN TEMP:  84; 6HR MAX TEMP:  89;

SHOALS TVA RES   N/A     86 N/A N/A MISG        N/A
$$

ALZ005>007-016-190100-
NORTH CENTRAL ALABAMA

CITY           SKY/WX    TMP DP  RH WIND       PRES   REMARKS
CULLMAN AG STN   N/A     84 N/A N/A NW3         N/A
DECATUR AP     CLEAR     82  72  71 CALM      29.98S
6HR MIN TEMP:  82; 6HR MAX TEMP:  89;

HUNTSVILLE AP  PTCLDY    84  69  60 NW5       29.98R
6HR MIN TEMP:  84; 6HR MAX TEMP:  90;

MERIDIANVILLE  CLEAR     81  64  57 CALM      29.99R
REDSTONE ARSN  CLEAR     83  66  56 N5        29.97R
VINEMONT AP    FAIR     N/A N/A N/A CALM      30.02S
$$

ALZ008>010-190100-
NORTHEAST ALABAMA

CITY           SKY/WX    TMP DP  RH WIND       PRES   REMARKS
ALBERTVILLE    CLEAR     82  72  69 CALM      30.00S
FORT PAYNE     PTCLDY    81  64  57 CALM      29.99R
SCOTTSBORO AP  CLEAR     82  72  69 CALM      29.99R
SCOTTSBORO HCN   N/A     82 N/A N/A MISG        N/A
VALLEY HEAD      N/A     77 N/A N/A MISG        N/A
$$

TNZ076-096-097-190100-
SOUTHEASTERN MIDDLE TENNESSEE

CITY           SKY/WX    TMP DP  RH WIND       PRES   REMARKS
TULLAHOMA      CLEAR     81  64  57 CALM      30.01R
WINCHESTER     CLEAR     82  66  57 NW3       30.00R
$$

...SURROUNDING SITES...

CITY           SKY/WX    TMP DP  RH WIND       PRES   REMARKS
ATLANTA        PTCLDY    84  68  58 W7        29.99R
ANNISTON       CLEAR     85  70  60 CALM      29.99R
BIRMINGHAM     PTCLDY    86  66  51 W7        30.02R
CHATTANOOGA    PTCLDY    85  64  49 W3        29.97R
DALTON         NOT AVBL
GADSDEN        CLEAR     86  68  54 CALM      29.99R
GOLDEN TRNGL   CLEAR     91  72  52 CALM      29.93S HX  98
HALEYVILLE     FAIR      83  70  64 VRB3      30.02R
JACKSON TN     CLEAR     82  70  66 S3        29.96F
MEMPHIS        PTCLDY    87  69  54 SW6       29.95F HX  91
NASHVILLE      CLEAR     84  64  50 W6        29.98R
OXFORD MS      FAIR      84  68  58 W3        29.99S
ROME           PTCLDY    86  67  52 W6        29.97R
SAVANNAH       CLEAR     84  68  58 CALM      29.96S
SELMER         CLEAR     81  70  69 CALM      29.97F
TUPELO         CLEAR     89  65  44 CALM      29.96S HX  91
TUSCALOOSA     CLEAR     87  73  62 W3        29.98R HX  94
$$

...GULF COAST WEATHER...

CITY           SKY/WX    TMP DP  RH WIND       PRES   REMARKS
GULFPORT       CLOUDY    83  76  79 NE12      29.98R HX  91
PASCAGOULA     CLOUDY    78  73  84 VRB3      30.00F
MOBILE         MOCLDY    82  74  76 S6        30.00R
GULF SHORES    TSTM      76  72  87 N9G20     30.04R
PENSACOLA      CLOUDY    80  72  76 NW10G29   30.00R
DESTIN         CLOUDY    86  73  65 SW6       29.98R THUNDER HX  93
PANAMA CITY    PTCLDY    83  73  72 CALM      29.97S
APPALACHICOLA  CLOUDY    86  81  85 SW9       29.97S HX 102
$$





USA.gov is the U.S. government's official web portal to all federal, state and local government web resources and services.